IRIDIUM 33 DEB, 37565

Orbit data source: Space-Track

IRIDIUM 33 DEB, 37565 is space debris in LEO originally from a launch on Sun, 14 Sep 1997 UTC launched from the Tyuratam Missile And Space Complex (TTMTR). The debris from Iridium 33, an American commercial communications satellite, has been tracked extensively since its accidental collision with the defunct Russian satellite Cosmos 2251 in 2009. This event, occurring at high speed in low Earth orbit (LEO), generated thousands of pieces of space debris, significantly increasing the risk of further collisions. The Iridium 33 debris cloud has impacted space traffic management and orbital debris mitigation strategies, making it a subject of ongoing study in space situational awareness.

Loading next visibility...
Identifier
37565, 1997-051YA
Orbit
LEO
Country
Flag of USUS
Related business
Manufacturer
Unknown
Mission
Spacecraft
Bus & Motor
Unknown
Mass
Unknown
Launch date (UTC)
1997-09-14 (28 years ago)
Launch vehicle
Unknown
Launch site
Tyuratam Missile And Space Complex (TTMTR)
Object type
Payload
Rocket body
Debris
Shape & HBR
Unknown shape, 0.1 m
Radar Cross Section
Small (<0.1 m²)

Expand to show TLE details & history
Last TLE update: 3 days ago

TLE from 3 days ago
0 IRIDIUM 33 DEB
1 37565U 97051YA  26059.50280610  .00002193  00000-0  53800-3 0  9996
2 37565  86.3534 335.7057 0012449 170.3944 189.7502 14.51968224669651
Epoch: 2026-02-28T12:04Z
TLE epoch observation values (Epoch: 2026-02-28T12:04:02.447Z)
Latitude
-0.00001°
Longitude
-3.62849°
Altitude
731.013 km
Speed
7.485 km/s
True Right ascension
22h 22m 49s
True Declination
0° 00' 00"
Sunlit
Object was in daylight at epoch
Visualization orbit readout
Latitude
Unknown
Longitude
Unknown
Altitude
Unknown
Speed
Unknown
Apparent Right ascension
Unknown
Apparent Declination
Unknown
Sunlit
N/A
Visualization observer readout
Local Sidereal Time
19:02:17
Azimuth
Unknown
Elevation
Unknown
Doppler factor
Unknown
Orbital elements
Apogee altitude
724.999 km
Perigee altitude
707.336 km
Semi-major axis
7,094.305 km
Eccentricity
0.00124
Inclination
86.3534°
RAAN
335.7057°
Arg. of periapsis
170.3944°
True anomaly
189.72608°
Mean anomaly
189.7502°
Eccentric anomaly
189.73814°
Mean motion
3.63227 °/min
Orbital period
99.11 mins
BSTAR
0.000538
Loading maneuver chart data...
Computing Atmospheric mass density...
Loading historical data...
Loading historical data...
Loading historical data...
Loading historical data...
Loading historical data...
Loading historical data...
Loading historical data...

Documentation

Showing up to 5 results
|